Pregled zadnjih 96 podatkov za postajo Vipolže (44544)

Čas Temperatura 2 m (°C)  Smer vetra (°)  Relativna vlaga 2 m (% RH)  Padavine (mm)  Omočenost lista (U)  Hitrost vetra (km/h) 
17.11.2019 5:00:00 16,94 167,69 66,78 0 0 8,31
17.11.2019 4:30:00 17,12 166,97 65,3 0 0 7,68
17.11.2019 4:00:00 16,94 182,58 65,14 0 0 7,82
17.11.2019 3:30:00 16,92 161,72 64,36 0 0 4,74
17.11.2019 3:00:00 16,99 142,41 63,3 0 0 6,96
17.11.2019 2:30:00 17,09 164,47 62,2 0 0 10,13
17.11.2019 2:00:00 15,66 173,95 69,16 0 8 4,57
17.11.2019 1:30:00 13,33 206,82 81,1 0 10 2,24
17.11.2019 1:00:00 12,72 95,04 83,27 0 9 2,91
17.11.2019 0:30:00 12,12 79,83 85,42 0 6 2,41
17.11.2019 11,45 76,69 89 0 9 3,23
16.11.2019 23:30:00 11,39 55,11 89,41 0 10 4,79
16.11.2019 23:00:00 11,14 70,04 90,79 0,4 10 6,73
16.11.2019 22:30:00 11,09 55,01 91,64 0,4 10 6,42
16.11.2019 22:00:00 10,7 79,92 95,49 0,8 8 3,08
16.11.2019 21:30:00 10,69 57,82 98,21 1 8 2,6
16.11.2019 21:00:00 10,76 39,32 96,34 1 9 2,08
16.11.2019 20:30:00 10,86 198,43 93,18 0,6 10 0,26
16.11.2019 20:00:00 11,36 58,9 88,51 0 8 2,25
16.11.2019 19:30:00 9,86 66,01 98,45 0 1 0,53
16.11.2019 19:00:00 9,8 72,59 97,81 0 1
16.11.2019 18:30:00 10,2 72,58 95,88 0 0 0,64
16.11.2019 18:00:00 10,69 33,79 93,69 0 0 1,21
16.11.2019 17:30:00 11,07 76,37 93,88 0 0 0,56
16.11.2019 17:00:00 11,4 87,88 94,74 0 0 1,14
16.11.2019 16:30:00 11,69 86,27 94,03 0 0 1,69
16.11.2019 16:00:00 12,97 70,61 89,63 0 0 0,34
16.11.2019 15:30:00 13,94 60,32 84,66 0 0 0,12
16.11.2019 15:00:00 14,97 60,32 70,78 0 0
16.11.2019 14:30:00 15,44 60,33 65,95 0 0
16.11.2019 14:00:00 15,28 60,32 66,95 0 0 0,03
16.11.2019 13:30:00 15,01 84,46 69,1 0 0 0,96
16.11.2019 13:00:00 15,29 61,79 67,9 0 0 0,56
16.11.2019 12:30:00 15,23 338,83 68,44 0 0 0,64
16.11.2019 12:00:00 14,7 87,66 72,15 0 0 0,99
16.11.2019 11:30:00 14,62 1,85 77,57 0 0 1,99
16.11.2019 11:00:00 14,28 47,4 79,83 0 0 1,47
16.11.2019 10:30:00 13,26 345,89 94,15 0 0 2,28
16.11.2019 10:00:00 13,09 274,12 100 0 3 0,29
16.11.2019 9:30:00 12,59 159,53 100 0 5 0,23
16.11.2019 9:00:00 12,2 126,46 100 0 9 1,2
16.11.2019 8:30:00 11,39 133,79 100 0 10 0,25
16.11.2019 8:00:00 11,14 175,41 100 0 10 0,39
16.11.2019 7:30:00 11,18 71,9 100 0 10 0,81
16.11.2019 7:00:00 11,04 122,53 100 0 10 0,52
16.11.2019 6:30:00 9,87 114,89 100 0 10 0,54
16.11.2019 6:00:00 9,72 82,9 100 0 10
16.11.2019 5:30:00 10,12 82,53 100 0 10 0,28
16.11.2019 5:00:00 10,01 56,56 100 0 10 0,13
16.11.2019 4:30:00 10,21 56,55 100 0 10 0,05
16.11.2019 4:00:00 10,12 56,56 100 0 10
16.11.2019 3:30:00 10,33 56,54 100 0 10 0,04
16.11.2019 3:00:00 10,96 57,42 100 0 10 0,5
16.11.2019 2:30:00 11,35 64,17 100 0,2 10 0,98
16.11.2019 2:00:00 11,61 61,82 100 0 10 1,12
16.11.2019 1:30:00 11,73 351,75 100 0 10 0,61
16.11.2019 1:00:00 11,76 328,99 100 1 10 0,28
16.11.2019 0:30:00 11,88 141,12 100 1,4 10 0,95
16.11.2019 12,01 127,53 100 0,6 10 0,33
15.11.2019 23:30:00 12,13 89,55 100 0,6 10 0,45
15.11.2019 23:00:00 12,12 179,91 100 0,6 9 0,86
15.11.2019 22:30:00 12,35 280,46 100 1,4 9 1,79
15.11.2019 22:00:00 12,99 303,73 100 5 10 12,15
15.11.2019 21:30:00 13,21 238,72 100 3,8 10 2,8
15.11.2019 21:00:00 13,16 263,74 99,95 5 10 1,56
15.11.2019 20:30:00 14,58 268,14 91,15 3,8 10 4,99
15.11.2019 20:00:00 15,47 216,25 82,32 0 10 3,89
15.11.2019 19:30:00 15,69 146,21 78,42 0 9 1,7
15.11.2019 19:00:00 15,86 150,13 78,21 0 10 2,48
15.11.2019 18:30:00 16 162,9 78,08 0,2 8 4,95
15.11.2019 18:00:00 15,6 160,08 81,44 0 10 5,7
15.11.2019 17:30:00 15,46 191,55 82,65 0 10 4,86
15.11.2019 17:00:00 14,39 186,73 88,5 0 10 4,38
15.11.2019 16:30:00 13,39 248,44 95,72 0,2 10 0,51
15.11.2019 16:00:00 13,67 134,55 94,95 0 10 0,79
15.11.2019 15:30:00 13,67 142,61 95,86 0 10 1,46
15.11.2019 15:00:00 13,51 119,33 98,91 0,2 10 1,29
15.11.2019 14:30:00 13,3 154,3 99,37 2,8 10 2,66
15.11.2019 14:00:00 14,13 112,01 92,82 2 10 1,47
15.11.2019 13:30:00 14,53 147,66 89,24 0 10 3,46
15.11.2019 13:00:00 14,67 131,51 89,58 0 10 2,97
15.11.2019 12:30:00 14,47 179,46 91,97 0,2 10 3,29
15.11.2019 12:00:00 14,13 165,76 92,38 0,8 10 3,49
15.11.2019 11:30:00 14,63 168,08 84,37 0,4 10 2,47
15.11.2019 11:00:00 15,06 125,76 77,31 0 10 4,01
15.11.2019 10:30:00 14,96 169,69 76,48 0 8 4,14
15.11.2019 10:00:00 13,86 105,71 79,63 0 6 2,81
15.11.2019 9:30:00 14,25 82,24 78,3 0 10 3,88
15.11.2019 9:00:00 13,19 138,23 82,73 0 10 1,53
15.11.2019 8:30:00 11,93 84,46 85,65 0 10 4,79
15.11.2019 8:00:00 11,82 73,62 83,95 0 7 3,91
15.11.2019 7:30:00 11,65 59,67 84,55 0 10 5,03
15.11.2019 7:00:00 11,87 72,81 82,86 0 9 2,94
15.11.2019 6:30:00 11,75 72,09 82,52 0 4 2,38
15.11.2019 6:00:00 12,59 72,12 81 0 3 2,98
15.11.2019 5:30:00 11,8 63,72 83,83 0 9 2,86